sat.trackr.live / text

‹ back to catalog

STARLINK-5980

NORAD 56326 · 2023-058K

PAYLOAD ACTIVE UNKNOWN

§ Identity

Operator
Country
US
Launch date
2023-04-27
Launch site
AFWTR
Launch vehicle
Mass (kg)
RCS (m²)

Purposes: comms

External: N2YO · Heavens-Above · Gunter

§ Orbital elements

Epoch: 2026-09-20T22:00:03.000096Z

Period
94.71 min
Inclination
97.2832°
Eccentricity
0.0001171
Mean motion
15.20484382 rev/d
Perigee alt
503.6 km
Apogee alt
505.2 km
Semi-major
6,882.5 km
B*
3.5060e-3
RAAN
257.7708°
Arg perigee
83.1463°
Mean anomaly
14.8228°
Rev number
548

§ Raw data

STARLINK-59801 56326U 23058K   26263.91670139  .00077260  00000+0  35060-2 0  99922 56326  97.2832 257.7708 0001171  83.1463  14.8228 15.20484382  5485

JSON: /api/v1/satellites/56326 · /tle

For live sub-satellite position, see the globe view (requires WebGL).

§ Visibility from observer

Set your observer location to see the next 7 days of passes ≥ 10°. The values pass through the URL so the page stays shareable.

No JS? Fill the form by hand. The geolocation button needs JavaScript.